Location: Arthez
(43.0833°N, 0.2500°W)
Time: 04:03:43
(UTC+00:00)

NOSS 3-1 (A) - Pass Details

Date: 23 October 2021
Orbit: 721 x 1491 km, 63.4° (Epoch: 22 November)

Event Time Altitude Azimuth Distance (km) Brightness Sun altitude
Rises 18:30:38 0° 205° (SSW) 3,156 6.5 -16.2°
Reaches altitude 10° 18:32:53 10° 202° (SSW) 2,279 5.7 -16.6°
Maximum altitude 18:37:59 66° 121° (ESE) 898 3.1 -17.5°
Enters shadow 18:42:43 16° 42° (NE) 2,181 5.0 -18.4°
